This demonstration page uses our WeatherBlox Daily Observations layout. Learn more.

Left ArrowRight Arrow

41.12389, -100.76542

Hourly Observations for May 25, 2017

Temp ( °F °C ) Dew Point ( °F °C ) Humidity (%) Winds ( mph kmh ) Pressure ( in mb ) Visibility ( mi km ) Precip ( " mm )
12:53 am 00:53 Clear 56 13.3 43 6.1 62 62 SE 15 24 29.50 999 10 16 0.00 0.00
1:53 am 01:53 Clear 55 12.8 44 6.7 67 67 SSE 12 19 29.48 998 10 16 0.00 0.00
2:53 am 02:53 Clear 54 12.2 44 6.7 69 69 SSE 12 19 29.47 998 10 16 0.00 0.00
3:53 am 03:53 Clear 53 11.7 45 7.2 74 74 SE 5 7 29.47 998 10 16 0.00 0.00
4:53 am 04:53 Clear 51 10.6 46 7.8 83 83 SE 7 11 29.45 997 10 16 0.00 0.00
5:53 am 05:53 Clear 50 10 45 7.2 83 83 SE 6 9 29.45 997 10 16 0.00 0.00
6:53 am 06:53 Sunny 50 10 45 7.2 83 83 SE 8 13 29.45 997 10 16 0.00 0.00
7:53 am 07:53 Sunny 53 11.7 47 8.3 80 80 VRB 3 6 29.47 998 10 16 0.00 0.00
8:53 am 08:53 Mostly Cloudy 54 12.2 48 8.9 80 80 SE 5 7 29.48 998 10 16 0.00 0.00
9:53 am 09:53 Sunny 59 15 49 9.4 69 69 SSW 6 9 29.49 999 10 16 0.00 0.00
10:53 am 10:53 Sunny 62 16.7 49 9.4 62 62 ESE 6 9 29.45 997 10 16 0.00 0.00
11:53 am 11:53 Sunny 64 17.8 51 10.6 63 63 ESE 7 11 29.46 998 10 16 0.00 0.00
12:53 pm 12:53 Sunny 67 19.4 51 10.6 57 57 Calm 29.49 999 10 16 0.00 0.00
1:53 pm 13:53 Sunny 72 22.2 52 11.1 50 50 undefined N/A 29.46 998 10 16 0.00 0.00
2:53 pm 14:53 Sunny 73 22.8 53 11.7 50 50 ENE 7 11 29.44 997 10 16 0.00 0.00
3:53 pm 15:53 Sunny 74 23.3 54 12.2 50 50 ENE 6 9 29.46 998 10 16 0.00 0.00
4:53 pm 16:53 Mostly Sunny 75 23.9 56 13.3 52 52 WNW 6 9 29.52 1000 10 16 0.00 0.00
5:36 pm 17:36 Mostly Cloudy with Nearby Thunderstorms 68 20 57 13.9 68 68 W 9 15 29.50 999 10 16 0.00 0.00
5:45 pm 17:45 Mostly Cloudy with Thunderstorms 68 20 53 11.7 59 59 WNW 15 24 29.50 999 10 16 0.00 0.03
5:53 pm 17:53 Cloudy with Thunderstorms 66 18.9 53 11.7 63 63 Calm 29.55 1001 10 16 0.00 0.03
6:06 pm 18:06 Cloudy with Nearby Thunderstorms 64 17.8 56 13.3 75 75 ESE 15 24 29.47 998 10 16 0.00 0.03
6:15 pm 18:15 Cloudy with Light Rain 65 18.3 56 13.3 73 73 E 12 19 29.44 997 10 16 0.00 0.03
6:53 pm 18:53 Partly Cloudy 65 18.3 57 13.9 76 76 NNW 8 13 29.54 1000 10 16 0.00 0.03
7:53 pm 19:53 Partly Cloudy 64 17.8 55 12.8 73 73 WNW 3 6 29.56 1001 10 16 0.00 0.03
8:53 pm 20:53 Sunny 61 16.1 56 13.3 84 84 NNW 7 11 29.59 1002 10 16 0.00 0.00
9:53 pm 21:53 Clear 59 15 56 13.3 90 90 Calm 29.61 1003 10 16 0.00 0.00
10:53 pm 22:53 Mostly Cloudy 57 13.9 56 13.3 96 96 WNW 7 11 29.66 1004 10 16 0.00 0.00
11:53 pm 23:53 Cloudy with Light Rain 61 16.1 56 13.3 84 84 NW 8 13 29.69 1005 10 16 0.01 0.25

Powered by AerisWeather